GFSNGP_925_spd_174.txt.gz
Wind_Speed
1 7 6 5 4 2 2 3 10 7 9 9 10 12 12 14 12 11 9 7 8 7 7 12 16 19 20 22 23 26 26 25 24 22 21 20 19 20 20 20 19 19 18 17
4 7 7 5 9 13 13 10 8 6 15 6 14 14 12 15 16 15 12 9 9 8 7 9 19 24 25 25 25 25 24 24 24 23 24 24 24 24 25 23 22 20 18 17
4 5 7 6 16 18 11 15 12 12 17 9 9 12 15 20 13 15 12 12 10 10 9 16 23 29 30 30 27 27 27 25 26 26 26 26 26 24 22 23 21 18 16 14
3 3 9 6 11 19 19 18 17 18 19 18 9 12 14 14 8 11 12 9 9 7 11 22 26 27 28 29 28 28 27 26 27 27 25 24 23 22 22 21 19 18 17 16
5 10 8 7 5 7 11 10 4 11 21 20 6 4 14 5 10 12 9 10 9 15 15 21 26 29 29 27 28 28 28 28 27 26 23 22 22 23 22 20 20 19 18 19
2 4 5 1 4 6 2 5 7 7 10 11 4 4 10 3 9 11 11 9 11 16 13 18 23 27 28 28 29 30 30 29 27 27 27 27 26 25 23 21 21 21 21 20
10 8 3 2 8 6 9 1 7 5 5 7 4 4 13 14 12 6 5 7 8 14 20 21 22 26 25 26 28 28 25 25 25 26 26 25 24 23 23 23 22 22 22 22
5 6 7 3 4 2 2 3 5 4 4 5 7 8 8 11 12 9 7 7 14 14 14 21 26 27 20 19 21 18 19 19 22 23 24 25 24 23 23 23 23 24 23 24
4 4 2 2 4 4 7 7 7 5 7 7 8 4 7 9 9 9 7 9 13 16 16 15 17 20 19 17 16 16 17 19 20 20 21 22 24 24 24 24 24 23 24 24
7 4 3 4 1 5 8 10 9 7 7 7 9 6 7 7 7 6 5 7 13 16 15 13 16 15 15 19 19 18 19 18 19 20 20 20 22 23 24 23 21 21 21 21
13 17 14 16 15 15 11 11 9 9 9 8 9 12 7 7 6 6 7 12 15 15 15 16 17 15 16 22 23 21 19 19 18 18 21 21 22 23 24 24 27 26 26 27
13 21 15 19 21 15 15 14 13 10 12 11 9 11 9 9 5 6 6 12 13 14 16 20 19 19 20 22 23 23 20 20 20 20 20 21 20 17 17 19 20 20 22 25
17 21 19 22 24 19 18 19 19 16 16 16 13 10 9 10 6 8 10 14 16 20 22 22 20 20 21 22 23 22 20 20 19 20 20 20 19 18 15 12 13 16 16 17
16 16 19 22 15 19 12 14 18 17 16 15 12 13 12 11 11 12 13 22 24 21 23 24 21 24 25 24 23 20 19 19 21 21 20 20 21 20 20 19 18 19 15 16
17 17 22 22 20 20 14 13 15 16 16 12 12 12 14 13 12 14 19 23 21 21 22 26 23 22 25 25 22 21 19 19 18 17 19 20 21 22 21 21 19 20 20 17
17 16 12 12 13 14 15 13 13 13 9 13 12 14 18 19 21 19 22 23 18 12 26 28 28 27 28 26 22 21 19 19 17 17 18 19 21 22 21 21 20 22 21 22
10 9 4 8 11 14 11 10 9 12 12 13 16 23 23 17 16 19 21 28 31 27 32 32 30 29 31 29 25 21 20 17 15 18 19 21 21 21 21 22 21 22 22 25
5 10 10 8 6 7 6 4 6 7 9 13 15 15 11 12 15 15 21 22 19 19 26 29 28 32 33 29 25 21 19 17 19 19 20 21 22 22 24 24 24 25 24 24
10 10 9 7 8 7 6 6 6 11 15 14 10 7 9 6 8 14 20 18 16 11 21 26 29 35 33 28 24 20 19 20 19 18 18 19 21 22 24 25 26 25 24 25
9 9 8 7 8 6 7 9 11 10 14 12 12 4 5 3 11 17 19 9 7 9 25 30 32 34 31 28 24 20 22 22 20 18 18 19 20 21 25 26 26 25 25 26
5 5 5 5 5 8 9 11 10 8 12 12 9 8 8 14 11 8 7 4 4 10 21 29 31 29 28 28 24 23 22 21 21 20 20 20 19 24 25 25 25 25 25 25
3 4 5 6 5 5 11 13 14 14 12 12 13 10 9 9 12 14 10 4 10 15 22 24 26 26 27 26 25 22 20 20 21 20 20 21 20 21 26 26 26 25 24 24
3 3 4 5 5 7 9 12 14 14 12 12 10 10 6 3 5 4 2 7 13 15 19 21 22 24 24 26 23 21 22 21 22 21 22 21 21 23 27 26 25 25 24 24
3 4 3 7 9 6 4 5 8 12 15 13 10 6 5 3 3 1 0 10 13 17 19 22 22 22 23 21 19 20 22 23 23 22 23 26 25 23 23 23 24 24 23 23
6 7 5 5 4 3 5 8 9 8 8 8 10 9 7 4 2 1 2 7 13 18 17 17 18 22 22 18 18 21 22 26 28 29 27 23 22 22 22 21 21 22 23 23
4 3 6 9 8 11 10 9 4 8 8 7 6 5 5 4 3 1 3 5 10 14 14 16 18 19 17 17 19 19 21 24 26 26 24 22 21 20 20 21 20 20 21 21
3 4 5 5 7 10 13 10 7 7 8 9 9 10 5 3 2 1 2 5 8 9 10 11 15 17 20 19 19 20 20 21 22 22 22 21 20 19 19 20 20 20 20 20

GFSNGP_925_spd_180.txt.gz
Wind_Speed
24 26 26 25 22 23 22 24 22 27 26 30 19 13 16 18 18 18 13 12 16 17 15 18 19 20 20 20 20 19 19 18 16 16 17 17 18 18 17 18 19 19 18 15
22 26 23 21 26 29 25 25 20 19 22 20 8 10 11 17 17 15 13 13 13 16 16 15 21 23 23 23 23 23 21 19 18 18 18 18 19 20 22 20 19 19 19 19
7 17 19 16 23 28 29 28 25 20 22 21 15 16 11 12 15 10 11 20 19 18 17 24 24 24 25 28 25 25 23 21 22 21 21 21 20 21 22 22 21 20 21 19
10 14 15 12 17 19 24 24 26 30 27 23 20 15 16 18 13 12 14 19 15 14 19 21 24 24 22 22 26 26 24 22 23 22 27 25 26 27 26 24 25 22 21 18
5 12 18 20 11 6 9 14 13 11 12 10 9 12 17 12 6 9 8 9 14 18 19 20 22 23 24 26 27 25 26 29 32 33 33 29 30 28 28 27 25 23 21 20
5 9 14 2 7 10 8 9 14 17 14 14 12 10 2 9 11 11 11 13 16 22 18 19 22 23 24 26 28 29 31 37 39 37 38 35 34 32 30 29 26 24 21 20
13 11 8 7 11 4 7 2 7 9 13 14 12 12 16 17 16 16 14 19 20 18 17 19 16 21 24 23 28 41 36 36 34 31 37 35 33 32 33 30 26 26 24 22
5 8 16 6 7 5 8 8 12 14 15 17 18 17 9 13 15 18 17 19 19 17 15 14 15 20 23 25 28 29 32 34 35 33 30 31 32 30 32 30 27 27 25 23
7 7 9 15 14 10 11 14 16 17 19 17 17 14 10 12 14 16 19 19 18 16 15 12 13 20 18 21 26 29 30 30 32 30 27 29 31 30 26 25 21 20 21 20
14 16 18 18 18 21 20 17 18 19 20 18 14 12 13 15 14 14 17 18 18 14 11 14 11 14 16 20 26 30 29 28 28 28 28 29 28 28 24 24 21 20 20 19
14 17 20 18 19 17 20 19 20 20 20 21 21 21 19 16 18 15 17 23 19 16 11 10 11 10 15 22 27 29 27 27 27 25 28 26 25 27 25 26 27 25 22 24
13 19 15 22 22 22 22 24 23 23 23 21 21 23 23 17 15 16 15 22 19 19 12 10 11 11 16 22 24 25 26 27 27 26 24 24 22 19 20 24 25 22 21 24
16 18 19 21 24 23 22 22 22 21 23 23 21 19 22 20 19 19 21 24 17 17 15 12 13 14 15 19 23 25 25 27 27 26 24 23 21 21 17 13 13 15 15 16
17 18 18 19 18 20 20 21 22 21 21 22 21 23 21 18 23 21 20 22 21 18 15 12 17 17 17 17 16 24 23 28 26 24 23 21 20 20 18 17 17 15 14 16
12 11 14 17 17 19 19 16 18 18 16 16 21 19 16 19 19 21 28 27 23 19 18 15 19 17 24 23 18 21 23 25 24 24 22 20 19 17 16 17 16 16 14 16
10 11 12 12 15 15 17 15 16 16 15 16 14 14 16 19 23 27 27 27 19 13 21 20 23 23 27 29 23 20 19 24 23 20 22 21 20 18 17 17 18 17 18 20
9 9 12 15 12 13 14 11 10 12 13 14 14 18 19 18 18 20 27 29 26 26 24 26 27 27 32 33 26 22 21 25 23 21 21 19 19 19 18 18 17 18 19 22
3 6 8 10 11 12 12 11 10 12 11 15 19 18 14 13 15 17 26 27 30 25 29 30 31 33 34 34 30 24 23 25 24 22 20 19 18 18 18 19 18 18 19 23
7 9 7 7 8 8 8 9 10 15 16 16 15 12 15 17 20 25 27 23 19 18 23 30 35 37 36 37 32 24 24 25 24 20 19 19 18 18 19 18 18 20 21 23
6 4 5 6 9 8 7 10 12 13 16 17 18 14 12 17 24 24 18 12 21 21 24 30 37 34 34 38 32 26 24 25 23 20 21 20 19 18 18 18 20 21 22 22
4 4 5 6 6 10 10 11 10 9 16 17 14 12 13 20 22 20 8 3 7 21 28 35 35 29 31 34 32 23 23 24 22 20 20 19 19 19 18 19 20 22 23 21
3 4 5 6 6 8 10 11 10 12 13 14 18 18 17 15 19 14 17 10 9 13 24 27 31 31 30 34 26 24 22 22 21 20 19 19 19 19 19 20 21 21 21 23
3 4 6 6 6 10 13 11 10 9 12 14 14 17 16 16 14 9 7 16 12 12 14 16 24 31 35 28 23 23 23 23 20 18 18 19 19 19 18 20 20 20 21 23
3 5 5 6 8 9 10 14 15 13 11 13 12 12 15 14 14 16 14 12 11 10 13 18 23 27 26 22 24 23 22 22 21 20 20 20 19 18 16 17 18 20 19 20
4 5 4 5 6 5 8 11 14 14 15 15 13 11 12 12 9 15 15 11 10 9 10 14 22 24 16 19 20 19 19 20 21 20 21 22 20 19 17 17 18 18 19 19
3 3 5 5 6 8 9 11 10 13 13 12 13 12 12 10 10 12 11 10 8 8 8 13 17 15 12 13 14 15 15 14 18 18 20 21 20 17 16 16 17 19 18 18
3 3 5 6 7 8 8 10 9 10 11 11 12 10 8 8 10 9 9 9 6 5 6 6 10 11 10 10 11 11 11 12 15 15 17 18 19 18 17 18 18 18 18 18

GFSNGP_925_spd_186.txt.gz
Wind_Speed
20 22 21 18 15 20 18 17 17 22 17 24 17 17 12 15 13 7 3 10 2 4 3 3 8 11 15 16 27 28 27 26 25 26 26 25 24 25 28 28 26 24 22 21
19 23 20 18 23 25 22 19 20 18 22 18 21 21 20 14 13 5 7 2 4 2 3 5 9 11 12 14 10 9 26 30 28 30 28 30 29 25 25 26 26 26 24 23
17 19 17 14 25 24 25 25 21 19 18 15 16 16 16 14 16 17 15 12 9 7 6 3 4 7 9 12 11 11 22 26 31 31 28 28 29 29 26 26 27 27 26 26
8 12 10 14 19 18 20 12 12 8 8 9 9 11 9 13 13 14 14 12 9 9 13 14 11 8 13 17 19 17 13 20 21 28 31 33 31 31 32 31 31 30 30 28
4 9 9 12 4 4 6 1 3 3 2 5 9 11 6 8 10 9 8 6 8 13 16 13 16 20 18 23 25 20 18 27 26 32 33 31 34 36 35 32 33 33 34 32
4 4 7 6 9 6 2 6 3 3 3 6 8 6 2 9 10 9 9 8 10 16 16 15 17 17 17 20 22 24 23 29 31 38 38 37 42 42 41 38 39 36 32 31
8 5 4 10 7 2 4 2 3 6 7 8 8 7 11 8 10 10 13 16 18 17 18 21 22 19 16 20 20 25 27 31 35 40 44 44 45 44 42 38 37 35 32 30
6 6 10 11 3 4 4 5 6 7 10 11 12 11 8 11 11 11 13 17 20 21 23 24 25 18 13 16 21 28 27 27 33 40 35 35 37 38 41 39 34 32 28 26
5 2 3 3 0 5 8 9 10 12 13 13 10 8 5 8 10 12 15 21 24 23 24 31 25 20 16 17 16 20 22 26 31 34 36 37 35 32 32 34 30 28 28 25
5 6 7 8 8 10 12 12 12 12 14 14 12 8 8 12 14 15 17 18 22 21 20 24 26 21 22 11 12 15 19 25 26 30 30 32 34 35 30 33 29 28 27 25
8 11 10 12 13 12 12 11 13 15 15 16 17 17 18 17 17 16 17 22 22 22 20 21 24 23 26 14 11 14 21 22 25 25 30 30 34 37 35 33 40 38 34 33
8 11 10 13 12 14 11 14 15 16 15 14 17 18 18 15 15 18 17 25 23 23 23 26 28 22 22 16 11 14 20 20 22 24 27 28 29 26 27 29 30 31 32 37
9 10 11 11 14 14 14 16 16 12 13 16 16 14 17 15 18 25 26 25 24 23 26 28 26 24 26 22 19 18 23 20 21 23 25 25 27 29 23 26 25 27 29 31
9 11 12 15 12 12 12 13 12 13 14 13 16 21 19 16 21 21 21 27 30 22 25 27 24 28 30 27 27 23 25 24 24 24 25 26 28 28 28 29 26 25 25 26
15 14 14 13 13 11 11 12 11 13 14 13 18 15 17 17 16 20 27 29 29 26 28 23 19 25 30 30 28 24 23 22 26 25 26 28 28 27 27 26 24 23 26 25
13 14 12 12 9 9 10 12 12 12 12 12 12 14 17 21 22 25 27 26 20 14 26 26 24 27 20 31 30 24 27 27 25 24 25 28 29 29 27 26 26 25 25 25
13 12 10 7 6 8 9 8 8 10 10 12 13 17 20 21 22 22 24 26 26 28 29 29 30 30 27 29 30 24 23 23 26 21 24 26 27 28 28 27 25 25 25 29
3 5 4 3 5 7 7 7 7 7 7 12 15 17 16 13 15 20 25 29 28 29 31 34 36 34 29 28 29 25 26 24 24 21 22 22 24 26 26 25 24 24 24 29
4 3 1 3 3 4 5 6 7 8 11 12 14 13 18 20 21 24 28 27 26 18 28 30 29 33 33 32 31 26 25 24 23 23 20 18 19 20 23 24 23 24 26 29
3 1 1 1 1 4 6 7 9 11 14 14 14 15 15 19 23 25 27 21 27 24 36 39 32 28 31 31 36 27 26 27 24 23 20 20 15 16 20 22 22 24 26 28
3 2 5 2 2 4 8 9 11 11 14 12 12 13 16 21 22 25 21 13 29 34 36 32 16 13 22 31 33 27 27 26 23 23 24 21 19 17 19 20 23 26 26 26
3 3 4 4 5 6 9 11 11 10 13 13 14 17 16 16 19 22 22 20 32 35 30 24 8 11 23 32 26 26 26 24 22 23 23 21 20 19 19 22 22 23 26 26
4 4 5 5 4 7 11 13 12 13 10 10 13 14 12 14 15 12 12 30 30 30 25 18 6 10 23 21 22 26 26 24 22 24 23 21 21 19 19 21 22 22 24 25
4 6 6 6 7 10 9 6 4 7 2 8 13 15 11 11 15 17 21 25 27 27 23 17 4 8 13 15 20 23 23 24 24 24 24 24 20 19 19 20 20 22 22 24
7 7 9 9 8 6 5 5 9 8 11 11 14 9 12 15 12 19 20 22 23 22 19 18 16 13 11 13 17 19 20 24 24 25 23 22 21 20 20 21 21 22 22 23
8 6 10 7 5 8 4 4 5 10 12 11 14 14 14 16 13 16 17 20 22 20 17 15 14 11 7 9 12 15 17 19 22 21 22 22 21 21 21 21 22 23 23 25
12 9 3 7 5 8 8 6 5 7 10 10 12 16 15 13 12 14 13 13 16 18 16 13 13 11 8 7 8 10 14 16 17 17 17 17 18 18 19 21 22 23 24 24

GFSNGP_925_spd_189.txt.gz
Wind_Speed
6 6 10 5 8 14 11 9 7 14 11 15 2 4 11 10 11 8 6 9 8 7 7 9 7 7 6 8 16 25 30 29 29 28 26 26 27 25 24 26 25 25 25 24
5 9 4 5 10 11 13 13 13 13 14 5 10 13 12 12 12 13 13 12 10 9 8 9 10 11 9 8 5 5 19 26 32 35 31 30 29 29 31 30 28 27 26 26
4 2 4 5 19 21 19 17 8 10 10 7 10 12 9 9 11 10 10 11 11 10 8 11 11 8 5 4 6 3 5 15 24 25 28 29 28 32 34 35 31 32 31 29
2 4 6 7 9 17 23 17 3 3 7 9 7 5 8 7 7 6 5 4 5 5 10 13 13 15 17 18 15 10 9 8 19 27 28 28 32 33 33 34 35 34 36 34
3 6 7 11 3 1 4 4 5 7 6 6 6 2 5 6 6 3 3 1 4 13 13 12 14 16 17 18 16 13 15 16 14 30 29 29 38 38 38 33 38 38 38 37
3 4 9 2 8 5 4 1 5 6 5 2 3 2 2 1 3 5 6 7 10 15 20 22 19 20 23 25 22 17 18 19 21 34 33 39 40 42 44 41 42 41 40 40
5 4 4 4 9 3 5 4 6 5 3 3 3 4 5 4 3 4 7 8 11 14 17 20 24 27 27 29 29 25 18 15 18 29 39 46 46 46 44 40 41 44 43 41
4 5 6 8 7 6 5 5 7 5 5 6 5 5 4 3 5 6 7 14 20 19 22 29 29 28 26 25 34 30 20 18 19 21 33 36 35 34 42 40 38 36 35 34
6 5 4 6 6 6 6 5 3 2 3 4 2 2 5 6 7 8 14 19 22 20 23 28 31 30 25 29 23 29 21 18 17 17 25 33 38 39 35 35 33 30 34 32
5 6 9 7 6 5 3 1 4 5 2 2 3 5 6 8 8 9 14 15 20 21 19 21 29 30 33 31 17 14 21 17 15 14 22 32 33 36 40 37 31 31 29 29
3 5 4 5 5 4 2 4 5 4 1 4 4 4 3 5 6 8 14 15 18 20 20 22 28 31 31 30 23 17 17 14 14 16 23 26 28 35 38 44 50 40 39 37
3 5 5 4 3 3 5 3 2 2 5 1 2 1 2 5 6 8 12 19 19 23 23 26 28 31 37 36 26 24 18 15 15 18 22 22 24 24 30 31 48 46 42 43
3 2 4 4 5 4 3 3 5 4 2 2 0 2 2 5 7 15 15 18 20 23 27 28 28 28 27 33 31 30 25 23 21 19 22 22 23 21 19 23 32 39 41 40
3 3 3 2 3 4 5 5 2 3 8 8 8 9 8 6 9 12 16 20 24 26 27 27 27 27 26 25 24 34 33 29 23 19 23 23 25 26 26 25 26 29 32 39
6 5 5 5 5 4 4 6 8 6 5 5 9 7 8 7 8 15 21 23 24 25 26 25 25 28 31 32 24 27 27 21 24 22 24 25 24 26 27 27 27 27 29 34
8 8 8 8 8 5 8 7 6 3 4 3 4 8 12 13 17 19 22 22 20 18 28 30 29 31 29 26 25 28 26 26 24 22 22 23 24 24 24 25 25 28 31 34
5 5 6 3 7 6 8 6 4 2 1 3 5 7 13 15 18 18 21 23 24 27 30 31 33 36 34 28 26 27 25 23 26 24 23 23 25 25 26 25 27 29 31 38
5 7 7 8 6 6 6 5 4 1 2 4 8 11 12 12 14 17 21 27 28 28 31 32 34 33 34 34 30 26 27 26 23 23 23 23 25 26 25 25 26 26 27 34
9 8 8 9 8 7 6 3 0 5 6 9 10 7 12 16 18 18 22 24 24 22 28 32 39 40 37 36 32 27 27 24 22 21 21 22 21 22 23 24 23 24 27 33
8 8 9 8 11 7 3 2 2 6 9 9 10 9 11 16 19 20 21 19 25 26 36 38 39 36 35 28 28 27 24 23 21 19 20 21 21 20 22 24 26 26 27 30
8 9 8 7 6 5 5 4 7 7 8 7 8 7 11 17 20 19 16 11 27 34 38 38 33 32 30 19 17 19 22 20 19 19 21 20 20 21 21 23 24 26 25 27
6 6 6 6 6 5 8 9 9 9 10 10 9 12 13 13 14 16 18 19 29 32 32 30 29 30 23 9 13 17 18 19 18 19 20 20 20 20 22 23 21 22 24 25
5 5 7 5 4 6 8 10 14 15 15 11 8 9 11 13 14 10 8 23 26 29 28 27 27 21 6 5 12 17 18 18 18 19 20 22 23 22 21 22 21 22 23 24
4 7 7 9 7 6 6 12 12 9 5 4 6 9 9 10 14 16 19 22 27 27 25 27 25 16 11 4 6 11 16 17 20 21 23 24 22 22 23 21 20 21 23 24
8 9 8 6 5 4 10 6 13 11 9 10 13 15 18 17 13 19 20 20 23 23 22 25 23 19 10 3 7 12 14 17 20 22 21 20 20 21 23 24 24 22 22 23
7 5 10 12 12 10 9 12 7 7 9 9 10 13 19 20 12 13 16 16 18 21 19 21 22 19 15 9 7 9 12 15 18 19 19 18 18 18 19 20 20 22 22 23
9 12 9 6 12 13 12 11 9 5 6 6 9 11 16 15 12 13 15 15 15 17 19 19 19 19 16 13 9 7 11 13 13 15 15 15 16 16 16 17 18 20 20 22

GFSNGP_925_spd_192.txt.gz
Wind_Speed
11 3 7 7 9 6 4 4 7 2 5 7 5 6 4 7 11 13 13 14 12 11 11 16 18 19 16 6 12 14 16 18 20 20 20 21 22 24 24 23 24 24 25 24
2 5 1 6 5 6 7 8 8 9 5 7 5 5 7 8 9 10 10 9 8 8 7 10 13 15 17 16 14 11 18 22 20 20 22 25 25 25 25 26 27 25 26 26
5 7 2 5 13 7 5 6 5 7 8 11 6 7 6 7 7 8 6 6 6 5 3 4 6 9 14 18 19 16 11 13 25 26 28 28 27 27 27 30 30 29 31 28
2 7 6 4 7 12 10 9 9 6 7 9 9 7 8 5 7 6 5 4 2 1 2 5 8 12 12 14 15 20 18 16 13 20 26 31 34 34 34 38 37 37 36 33
3 4 2 5 8 7 9 7 3 10 11 11 8 9 5 7 6 7 6 4 3 4 8 11 13 16 20 21 21 20 20 19 17 19 30 30 33 38 36 36 37 39 37 37
3 4 8 6 4 7 7 4 7 10 11 11 8 5 4 8 7 8 8 7 7 6 9 13 19 19 18 22 24 22 25 28 22 21 27 35 37 41 43 41 40 38 39 41
4 3 5 4 6 4 8 7 13 11 9 8 6 5 4 4 2 3 4 5 9 12 16 21 22 22 23 27 27 31 29 31 26 23 24 33 40 36 38 43 39 46 43 44
4 6 10 8 4 8 5 9 8 7 7 7 5 6 5 5 5 5 6 12 17 19 23 26 26 24 24 24 31 32 27 24 25 26 23 26 31 38 41 39 37 34 33 31
8 5 3 7 4 6 6 7 6 7 5 7 7 6 6 5 5 5 8 11 13 14 18 22 25 27 24 35 37 35 29 25 22 21 21 22 25 29 28 29 28 26 28 29
4 3 5 9 7 6 6 6 7 7 7 7 5 5 3 3 2 1 3 5 4 9 11 17 22 24 27 31 35 37 32 26 23 21 20 18 20 28 30 26 27 28 28 28
1 2 6 4 7 8 7 9 8 7 6 5 5 5 5 4 4 3 4 6 10 9 11 16 21 24 27 28 31 32 33 29 26 23 21 20 20 24 29 30 36 33 36 35
4 6 4 5 7 7 8 7 8 7 4 4 7 7 5 2 1 2 5 8 12 14 16 20 23 25 26 27 29 29 26 29 22 23 21 21 20 23 30 34 34 39 45 50
4 4 6 6 7 7 8 8 8 8 6 7 5 4 2 2 2 3 8 12 13 17 20 22 23 25 28 28 29 26 25 27 25 25 19 18 19 19 17 25 34 29 38 40
5 6 3 6 6 8 7 6 10 11 11 9 6 4 2 1 2 6 8 14 17 20 23 24 24 25 29 29 30 27 27 31 27 25 21 20 21 22 22 19 16 20 30 39
3 3 5 4 5 6 6 11 9 7 5 5 6 5 4 4 4 8 15 17 18 20 23 23 25 28 27 28 28 28 27 24 24 23 23 23 21 20 21 21 20 20 22 32
6 6 7 7 8 7 10 7 8 7 6 4 4 3 6 7 10 13 16 18 16 17 25 27 28 31 30 30 30 28 28 30 26 23 22 22 22 19 19 20 19 20 23 29
4 5 4 4 7 8 8 6 7 7 6 5 3 4 5 7 9 14 17 19 22 24 27 27 30 33 34 32 32 29 28 28 27 26 25 23 22 21 21 20 21 22 27 31
7 6 7 8 9 7 6 6 6 6 4 6 3 2 6 6 6 15 18 21 24 24 25 28 29 34 36 35 34 31 29 28 26 26 26 24 22 22 21 21 21 23 24 28
7 8 7 8 8 8 7 7 6 8 8 3 2 3 7 10 14 16 19 20 21 20 24 30 36 38 38 36 34 31 27 26 26 26 25 23 21 21 20 21 22 23 23 26
7 8 9 9 12 8 7 10 9 5 2 2 3 3 7 12 15 17 18 16 20 22 31 34 35 34 35 35 34 30 25 23 22 21 19 20 19 18 19 21 21 23 26 28
9 7 10 10 8 7 12 12 10 6 8 7 6 7 11 15 14 16 13 7 20 26 31 32 29 31 34 34 30 21 15 15 17 17 16 16 15 16 18 20 22 24 25 28
10 9 7 7 6 6 10 10 8 9 8 8 10 11 6 10 11 12 16 14 22 29 28 28 29 33 35 30 20 10 7 9 13 14 14 15 14 15 16 19 20 22 24 26
6 6 7 7 7 7 8 11 13 13 10 11 12 11 9 7 10 5 6 17 22 26 27 26 32 32 30 22 12 6 7 8 11 14 14 14 16 15 17 17 20 22 22 23
4 7 8 11 9 6 4 8 11 14 14 8 4 1 4 6 12 13 13 18 21 25 25 25 29 28 24 20 15 7 7 8 11 12 13 15 17 19 20 21 21 23 26 26
7 10 9 8 6 5 9 6 13 13 12 6 2 2 7 11 6 12 14 17 19 22 23 23 25 27 24 19 14 10 6 6 9 12 15 17 18 19 20 22 24 24 23 22
7 5 10 14 13 12 8 17 9 12 10 5 1 4 8 10 10 10 13 15 17 18 19 21 23 25 23 21 16 9 2 4 8 11 13 13 14 15 16 17 20 20 19 19
12 14 10 7 9 13 17 18 14 10 7 4 0 3 7 12 9 9 11 13 14 16 16 18 20 23 22 22 19 15 10 7 6 9 10 11 11 10 10 10 12 14 15 16

GFSNGP_925_spd_195.txt.gz
Wind_Speed
18 6 5 4 8 20 21 28 15 11 15 15 8 7 6 7 8 9 9 9 8 7 6 10 14 15 14 14 16 9 6 11 17 18 18 19 18 18 19 22 24 25 24 21
20 15 9 9 6 11 23 21 6 9 10 2 5 6 6 6 7 8 7 6 5 5 5 8 10 9 7 5 2 1 0 4 10 20 22 24 24 23 24 25 26 27 23 23
15 11 6 8 22 13 5 3 9 11 4 9 5 6 7 9 8 8 6 5 4 5 5 7 8 7 7 6 6 7 8 11 13 18 24 28 29 27 27 28 27 29 29 30
3 5 11 9 9 16 15 10 1 3 3 9 5 6 7 8 9 8 7 6 4 2 3 5 6 8 10 11 11 11 12 13 15 17 20 25 27 30 31 32 36 36 36 34
4 6 4 5 6 14 15 15 11 8 4 7 7 4 1 5 6 8 8 7 6 4 3 2 4 8 11 12 13 15 19 20 20 20 21 23 28 33 34 31 31 35 38 37
4 5 10 7 10 12 8 8 16 18 17 15 14 6 6 12 9 8 7 6 5 3 5 7 12 14 15 17 16 18 19 22 22 22 23 25 28 33 39 36 39 39 41 41
6 4 6 5 5 12 10 7 20 22 19 22 17 5 8 11 6 8 9 12 12 11 11 12 15 17 19 22 23 25 24 25 26 26 24 25 29 31 31 35 33 36 40 42
4 5 10 7 5 11 4 4 11 13 15 16 6 7 10 8 8 7 6 5 5 6 9 10 12 13 17 20 24 26 28 31 33 32 29 23 25 25 24 28 30 30 30 27
9 6 2 10 1 2 5 10 6 11 9 8 9 6 9 7 7 5 5 5 4 3 6 11 14 13 16 22 24 25 27 30 32 33 32 30 24 28 27 25 25 24 22 22
3 5 5 7 4 5 7 6 8 6 9 10 8 8 7 7 6 6 8 5 4 4 10 15 15 17 16 20 23 24 26 29 32 32 34 34 28 28 24 21 22 23 21 24
2 3 7 2 4 7 6 7 9 9 9 9 10 8 7 7 6 5 4 3 2 5 9 15 18 18 17 18 19 22 25 26 29 29 26 25 30 30 26 27 25 24 27 30
4 8 4 8 7 7 8 8 11 9 7 7 8 9 6 6 5 5 4 4 5 8 11 17 16 18 18 18 19 21 22 20 22 24 23 20 21 23 29 30 27 27 34 33
4 6 5 9 8 6 9 10 8 8 7 8 5 6 7 5 5 6 3 4 6 9 13 15 16 17 19 21 24 24 23 23 23 23 21 21 22 20 19 24 23 29 28 37
7 7 5 4 6 8 8 7 7 5 6 8 6 10 7 5 5 2 2 7 12 13 14 14 17 19 22 24 24 24 24 25 26 24 23 23 23 23 21 18 15 19 24 31
5 4 4 5 5 6 5 7 9 8 6 6 8 7 8 5 3 1 7 9 11 13 14 16 19 23 25 25 25 26 29 28 27 27 26 25 24 23 24 23 20 19 19 22
5 5 6 6 7 7 8 8 10 8 7 6 6 6 7 6 3 2 6 8 9 10 16 19 21 25 26 28 29 30 30 30 31 30 29 27 25 24 23 22 22 20 18 19
4 4 4 4 7 7 10 11 11 11 7 7 7 12 9 6 5 6 7 9 12 15 17 20 23 26 29 29 32 34 34 32 31 31 29 27 26 25 23 22 22 20 20 22
7 7 7 6 8 8 7 6 7 8 5 10 14 13 9 7 5 6 8 13 17 15 18 23 25 29 31 32 32 33 33 32 30 29 29 27 26 26 24 23 22 21 19 21
9 9 8 7 8 9 9 8 7 12 15 16 12 5 4 4 8 7 11 13 11 13 17 22 27 31 31 30 33 33 32 32 30 28 28 27 26 25 23 21 19 20 20 21
8 5 7 6 11 9 9 11 16 14 13 11 10 6 3 7 9 12 12 7 14 19 22 24 27 28 27 29 32 32 31 28 26 24 21 21 21 20 19 19 19 19 21 23
8 8 10 9 6 13 17 21 18 11 12 10 8 7 9 9 10 9 8 2 16 19 23 25 26 25 26 30 33 29 24 23 18 15 14 15 17 17 16 18 19 21 22 23
7 8 8 8 6 5 14 15 12 12 12 9 8 9 8 9 8 10 12 13 15 21 23 25 24 26 30 31 27 25 23 19 18 17 15 15 16 14 15 16 16 18 20 23
5 5 5 6 7 7 13 12 11 10 10 10 10 11 10 9 8 5 5 10 17 20 23 24 25 28 29 25 23 23 23 22 20 16 15 15 16 15 14 15 16 19 19 20
5 6 6 10 10 8 6 10 14 15 14 11 11 10 6 5 9 8 9 12 16 18 21 21 24 26 27 23 23 21 21 19 17 16 15 13 11 10 11 13 15 17 19 21
6 8 9 8 6 5 8 9 8 8 11 11 12 7 5 4 7 9 9 12 14 17 19 20 21 24 24 24 21 20 19 19 16 13 9 5 7 8 9 11 13 16 19 21
6 4 9 13 12 13 9 9 6 13 16 10 8 8 6 4 6 8 8 9 12 14 17 17 19 22 22 24 23 20 17 14 9 5 1 2 4 6 7 9 12 14 17 21
8 10 8 7 11 11 12 15 12 11 15 13 11 9 6 4 4 3 6 8 11 12 15 14 17 19 21 22 22 22 20 17 14 11 9 8 7 7 7 7 8 9 12 15

GFSNGP_925_spd_201.txt.gz
Wind_Speed
15 2 9 12 18 21 20 25 13 26 20 24 12 9 10 11 12 12 10 9 10 11 11 15 14 12 12 10 9 8 6 4 2 2 0 2 3 5 6 9 9 11 12 16
12 12 9 4 11 25 26 24 22 28 30 6 2 6 9 14 15 14 14 14 14 13 13 15 16 16 13 12 10 9 7 5 4 4 2 2 5 6 8 10 13 16 16 19
8 6 6 4 22 19 14 20 18 22 26 6 8 13 16 17 16 16 15 14 12 9 10 15 14 14 12 9 7 7 6 5 6 11 11 10 10 11 12 14 15 18 19 22
5 4 14 18 9 18 21 21 20 20 23 13 15 16 15 19 21 17 17 17 16 13 14 12 11 9 10 8 8 8 8 8 7 6 6 7 9 12 15 17 18 20 21 22
6 10 17 14 9 9 14 25 20 25 24 16 8 11 6 12 13 15 16 12 16 19 16 14 12 9 8 8 7 5 5 5 7 9 10 11 12 14 15 17 18 22 26 26
4 8 10 8 7 10 8 20 16 19 22 14 15 11 9 16 14 13 15 16 17 19 19 15 8 3 4 5 6 7 6 7 9 11 12 14 15 18 18 19 22 21 24 28
10 7 6 7 4 9 11 5 11 18 15 17 16 16 11 15 14 16 19 19 19 15 13 12 12 9 8 7 5 5 7 9 12 13 14 16 18 19 20 21 23 25 25 26
6 8 15 11 10 18 7 2 7 9 13 19 8 9 18 18 17 15 16 17 17 15 16 16 12 10 7 5 6 8 10 12 14 15 17 18 20 22 23 23 23 25 24 29
10 7 2 15 8 6 4 5 5 11 10 12 10 7 12 13 16 15 17 20 19 17 15 13 11 8 6 5 7 11 14 15 16 17 19 19 20 23 20 14 15 19 19 21
4 7 6 10 1 2 4 3 4 6 13 16 11 12 10 15 15 14 18 17 16 15 12 10 7 3 4 8 10 12 14 15 17 18 19 20 18 18 18 17 16 18 18 22
4 2 2 7 9 6 5 4 6 7 8 13 15 14 16 14 14 13 15 15 14 13 9 6 4 5 7 9 10 12 11 13 15 15 16 18 18 18 20 21 20 21 21 21
8 6 2 2 7 9 9 10 12 13 10 11 15 15 15 12 11 14 14 14 12 9 7 4 4 7 8 9 9 9 12 13 13 15 17 17 18 22 20 22 24 27 31 32
3 4 5 1 1 6 8 12 11 11 13 14 11 13 12 9 10 13 12 12 10 8 4 3 5 6 8 10 11 14 15 17 17 17 18 20 20 21 25 26 25 26 29 32
3 6 2 5 4 7 8 10 10 10 10 11 12 12 11 10 11 12 12 10 8 5 4 4 5 7 10 11 12 14 16 19 20 21 21 21 21 23 24 25 25 24 24 27
3 2 2 6 9 8 10 11 11 11 10 9 10 11 14 12 11 12 11 9 6 3 3 4 7 10 10 11 13 15 18 20 20 21 21 23 25 25 27 27 28 29 26 24
6 5 6 7 9 10 10 8 11 8 8 6 9 9 11 12 13 12 10 7 5 4 5 8 10 11 11 11 13 17 18 20 23 22 23 24 25 26 26 27 27 26 25 25
3 2 2 3 4 6 9 11 12 13 9 9 9 14 14 13 12 10 8 7 6 6 7 8 12 11 11 15 19 19 19 19 21 23 24 26 26 25 27 26 25 25 26 27
4 3 3 3 6 7 6 7 6 9 10 13 17 17 13 11 9 10 10 9 7 7 8 8 8 11 15 17 17 20 20 21 22 23 25 26 26 28 28 25 26 26 26 26
6 7 5 4 4 6 6 7 7 10 14 18 17 11 14 14 13 12 11 9 6 6 7 5 9 13 16 17 19 20 21 22 22 24 26 27 26 25 24 24 24 24 24 24
4 4 5 5 4 4 5 5 13 12 15 19 17 15 10 12 11 12 9 7 7 3 5 9 10 13 15 17 19 21 23 23 24 24 24 25 24 22 21 22 23 23 23 22
4 4 6 7 6 6 7 13 13 9 16 21 17 13 13 14 12 10 6 3 1 3 8 10 12 14 15 19 21 22 22 23 23 24 24 23 23 21 20 20 20 20 21 22
2 2 5 5 5 3 6 12 13 16 16 16 15 16 13 11 10 6 4 3 3 4 9 12 13 16 18 22 20 20 21 22 23 24 22 21 21 20 19 19 19 19 18 18
3 1 2 4 5 7 11 12 16 16 14 13 13 13 12 9 9 6 3 6 4 7 10 13 15 16 18 18 18 19 21 21 22 22 21 21 20 20 19 19 18 18 17 18
2 2 3 6 9 10 9 11 13 11 11 11 10 12 12 9 7 7 5 4 4 7 9 11 12 14 15 16 16 17 19 19 20 21 21 20 17 19 19 18 17 15 14 14
4 5 7 7 6 6 8 11 10 11 11 10 11 12 13 11 8 7 7 6 5 7 8 9 10 10 13 14 15 15 17 18 21 21 19 18 19 18 17 16 14 11 11 9
5 5 8 11 8 8 9 12 8 11 11 9 10 12 12 14 11 9 8 7 6 6 6 6 8 8 10 13 15 15 16 18 20 20 20 20 19 17 15 13 12 10 7 5
8 7 7 7 10 10 11 12 11 11 14 13 12 14 17 16 13 11 10 9 7 4 5 4 6 8 9 11 13 14 15 16 18 19 19 20 19 19 18 17 16 16 13 10